Temp
-12 -12 -12 -12 -11 -11 -11 -11 -10 -10 -10 -10 -10 -10 -10 -10 -10 -10 -10 -10 -10 -10 -10 -10 -10 -10 -10 -10 -9 -9 -9 -9 -9 -8 -8 -8 -9 -9 -8 -8 -8 -8 -8 -8 -8
-12 -12 -12 -12 -11 -11 -11 -11 -11 -10 -10 -10 -10 -10 -10 -10 -10 -10 -10 -10 -10 -10 -10 -10 -10 -10 -10 -10 -10 -9 -9 -9 -9 -9 -9 -9 -9 -9 -9 -8 -8 -9 -9 -9 -8
-14 -13 -12 -12 -12 -11 -11 -11 -11 -11 -11 -10 -10 -10 -10 -10 -10 -10 -10 -11 -10 -10 -10 -10 -10 -10 -10 -10 -10 -10 -10 -9 -9 -9 -9 -9 -9 -9 -9 -9 -9 -9 -9 -9 -9
-14 -14 -13 -12 -12 -12 -12 -12 -11 -11 -11 -11 -11 -11 -11 -11 -11 -11 -11 -11 -10 -11 -11 -11 -11 -10 -10 -10 -10 -10 -10 -10 -9 -9 -9 -9 -9 -9 -9 -9 -9 -9 -9 -9 -9
-14 -14 -14 -13 -12 -13 -12 -12 -12 -12 -11 -11 -11 -11 -11 -11 -11 -11 -11 -11 -11 -11 -11 -11 -11 -10 -10 -10 -10 -10 -10 -10 -10 -10 -10 -9 -9 -9 -10 -9 -9 -9 -9 -9 -9
-16 -16 -15 -14 -13 -13 -13 -13 -12 -12 -12 -12 -11 -11 -11 -11 -11 -11 -11 -11 -11 -11 -11 -11 -11 -11 -10 -10 -10 -10 -10 -10 -10 -11 -10 -10 -9 -9 -11 -10 -10 -9 -9 -9 -10
-17 -17 -16 -16 -14 -14 -13 -13 -13 -12 -13 -13 -12 -12 -11 -12 -12 -11 -11 -11 -12 -11 -11 -11 -11 -11 -11 -10 -10 -10 -10 -10 -11 -11 -10 -9 -9 -10 -11 -10 -10 -10 -9 -9 -9
-16 -17 -17 -16 -15 -15 -14 -14 -14 -13 -13 -12 -12 -12 -12 -12 -12 -11 -12 -12 -12 -12 -12 -12 -11 -11 -11 -11 -11 -11 -10 -11 -11 -11 -10 -10 -9 -11 -10 -10 -10 -10 -10 -10 -10
-17 -17 -17 -17 -17 -15 -15 -15 -15 -15 -14 -14 -13 -12 -12 -12 -12 -12 -12 -12 -12 -12 -12 -12 -12 -11 -11 -11 -11 -10 -11 -11 -11 -11 -11 -10 -9 -10 -10 -10 -10 -10 -10 -10 -11
-17 -17 -16 -17 -17 -17 -16 -16 -16 -15 -15 -14 -14 -13 -12 -12 -13 -13 -13 -13 -13 -13 -12 -12 -12 -12 -11 -11 -11 -11 -11 -11 -11 -11 -11 -11 -10 -10 -10 -10 -10 -10 -11 -11 -11
-17 -18 -18 -17 -17 -17 -17 -16 -16 -15 -14 -15 -14 -14 -13 -14 -14 -14 -14 -13 -13 -13 -13 -13 -12 -12 -12 -12 -12 -12 -12 -11 -12 -11 -12 -11 -10 -10 -10 -10 -10 -10 -11 -11 -11
-19 -18 -18 -18 -17 -17 -17 -16 -16 -16 -16 -16 -14 -14 -14 -14 -14 -15 -15 -14 -14 -13 -13 -13 -13 -13 -13 -13 -13 -13 -12 -12 -12 -12 -11 -11 -10 -10 -11 -11 -11 -11 -11 -12 -11
-19 -19 -18 -18 -19 -18 -16 -17 -17 -16 -16 -16 -15 -14 -14 -14 -15 -14 -15 -15 -14 -14 -14 -14 -13 -13 -13 -13 -13 -13 -13 -12 -12 -12 -12 -11 -10 -10 -11 -11 -12 -12 -12 -12 -11
-20 -19 -19 -21 -19 -18 -18 -18 -18 -18 -18 -16 -16 -15 -15 -15 -15 -15 -15 -15 -15 -15 -15 -14 -14 -13 -13 -13 -13 -13 -13 -13 -13 -13 -12 -12 -10 -10 -11 -11 -13 -13 -13 -12 -12
-23 -20 -21 -20 -19 -19 -20 -21 -22 -23 -21 -19 -17 -15 -16 -16 -15 -16 -16 -16 -15 -16 -15 -15 -14 -14 -14 -14 -14 -13 -14 -14 -13 -13 -13 -12 -12 -10 -11 -12 -13 -14 -14 -13 -13
-23 -23 -22 -21 -20 -20 -22 -22 -23 -23 -20 -17 -17 -15 -16 -16 -15 -16 -17 -16 -16 -16 -15 -15 -15 -15 -14 -14 -14 -14 -14 -14 -14 -15 -13 -13 -13 -11 -12 -13 -13 -14 -14 -13 -14
-23 -23 -23 -22 -20 -22 -24 -24 -24 -24 -19 -17 -16 -16 -16 -16 -16 -17 -18 -17 -17 -17 -16 -16 -16 -16 -15 -15 -15 -15 -15 -15 -16 -15 -14 -14 -14 -12 -12 -13 -14 -14 -14 -15 -15
-24 -25 -25 -23 -22 -23 -24 -25 -25 -21 -18 -17 -17 -18 -18 -18 -17 -17 -17 -17 -16 -16 -16 -16 -15 -16 -15 -16 -16 -16 -16 -16 -16 -16 -15 -15 -13 -12 -13 -14 -14 -14 -15 -16 -17
-24 -24 -25 -25 -24 -25 -25 -25 -24 -20 -21 -19 -19 -19 -18 -18 -19 -19 -17 -17 -17 -18 -18 -17 -17 -16 -16 -17 -17 -17 -16 -18 -18 -17 -17 -15 -14 -14 -14 -15 -15 -15 -16 -17 -18
-24 -24 -24 -25 -25 -25 -25 -25 -25 -22 -20 -20 -21 -20 -19 -19 -19 -19 -19 -16 -17 -18 -18 -18 -18 -17 -17 -16 -17 -17 -17 -18 -18 -18 -18 -16 -15 -15 -16 -16 -17 -17 -17 -18 -18
-24 -24 -23 -24 -24 -26 -26 -25 -25 -24 -23 -22 -21 -20 -19 -20 -20 -20 -19 -18 -18 -18 -19 -19 -19 -18 -18 -17 -17 -18 -18 -18 -19 -19 -20 -19 -16 -16 -17 -18 -18 -18 -18 -18 -19
-25 -24 -24 -24 -25 -26 -25 -24 -24 -23 -23 -23 -22 -22 -21 -21 -21 -20 -19 -19 -19 -19 -19 -20 -21 -20 -19 -18 -18 -18 -18 -19 -19 -20 -20 -20 -16 -18 -19 -19 -19 -19 -19 -19 -18
-26 -25 -24 -24 -25 -26 -25 -24 -24 -24 -23 -22 -22 -22 -21 -21 -21 -21 -20 -19 -20 -20 -19 -21 -21 -20 -19 -18 -18 -17 -17 -19 -20 -21 -19 -21 -17 -19 -20 -20 -20 -20 -20 -19 -20
-29 -29 -28 -28 -27 -27 -26 -25 -24 -24 -23 -23 -23 -22 -22 -22 -21 -21 -20 -20 -20 -20 -20 -21 -21 -20 -19 -19 -19 -19 -19 -20 -21 -21 -20 -21 -20 -20 -21 -21 -20 -20 -20 -20 -20
-29 -28 -29 -29 -28 -28 -28 -27 -26 -25 -24 -24 -23 -22 -22 -22 -21 -21 -21 -21 -20 -20 -21 -22 -22 -21 -19 -20 -20 -20 -20 -21 -20 -20 -21 -20 -21 -21 -21 -21 -21 -20 -20 -20 -20
-29 -28 -29 -29 -29 -29 -29 -28 -28 -28 -26 -25 -24 -23 -23 -22 -21 -21 -21 -22 -21 -22 -23 -23 -21 -23 -22 -21 -22 -22 -22 -19 -21 -20 -21 -21 -21 -21 -21 -21 -21 -21 -20 -21 -21
-29 -29 -28 -29 -29 -29 -29 -29 -28 -28 -28 -28 -27 -27 -26 -24 -24 -24 -24 -23 -23 -24 -24 -24 -24 -24 -23 -23 -23 -23 -19 -21 -21 -21 -21 -21 -21 -22 -22 -21 -21 -21 -21 -21 -20
Height
5736 5742 5746 5752 5757 5763 5768 5773 5778 5783 5787 5793 5798 5802 5806 5810 5815 5819 5823 5825 5828 5832 5836 5839 5841 5843 5845 5847 5849 5851 5853 5852 5854 5857 5859 5859 5860 5860 5861 5860 5860 5859 5860 5859 5859
5726 5732 5737 5743 5749 5754 5761 5765 5770 5775 5780 5785 5791 5795 5800 5804 5808 5813 5816 5818 5823 5827 5831 5834 5836 5837 5840 5842 5845 5847 5849 5848 5850 5852 5854 5855 5855 5856 5857 5856 5856 5856 5856 5856 5856
5717 5722 5728 5733 5740 5745 5751 5757 5762 5767 5772 5777 5783 5788 5793 5798 5802 5806 5809 5814 5818 5821 5825 5828 5830 5833 5834 5837 5840 5843 5845 5844 5846 5847 5850 5851 5851 5852 5852 5851 5851 5852 5852 5852 5851
5704 5711 5717 5724 5729 5735 5741 5748 5753 5759 5764 5769 5775 5779 5785 5791 5795 5800 5804 5808 5811 5814 5818 5822 5824 5827 5829 5831 5834 5838 5839 5840 5841 5843 5846 5846 5846 5847 5849 5847 5846 5847 5848 5847 5846
5692 5699 5706 5713 5720 5725 5731 5738 5744 5749 5754 5761 5766 5771 5776 5783 5788 5793 5797 5800 5803 5806 5810 5814 5817 5819 5822 5825 5828 5832 5834 5835 5835 5836 5839 5840 5841 5841 5845 5841 5841 5842 5842 5842 5842
5678 5686 5694 5700 5708 5714 5721 5727 5732 5738 5744 5751 5756 5761 5768 5775 5777 5784 5789 5792 5795 5799 5803 5806 5809 5813 5816 5819 5821 5825 5827 5827 5828 5831 5833 5835 5834 5835 5839 5835 5836 5835 5836 5837 5837
5666 5673 5681 5688 5696 5703 5709 5715 5722 5727 5734 5739 5745 5752 5760 5764 5770 5774 5780 5784 5788 5791 5795 5799 5803 5806 5809 5811 5814 5815 5817 5818 5822 5825 5827 5826 5826 5830 5830 5828 5829 5829 5828 5829 5830
5652 5661 5668 5675 5683 5691 5697 5703 5711 5717 5723 5729 5735 5742 5750 5754 5761 5765 5771 5775 5779 5782 5786 5790 5794 5798 5801 5803 5805 5806 5807 5810 5815 5816 5818 5818 5820 5823 5821 5821 5822 5821 5820 5821 5822
5639 5647 5656 5663 5672 5678 5684 5691 5698 5705 5710 5715 5723 5732 5737 5745 5751 5754 5760 5764 5770 5775 5778 5782 5786 5789 5791 5794 5795 5797 5802 5804 5804 5805 5807 5810 5810 5816 5814 5811 5812 5814 5814 5814 5814
5624 5633 5642 5649 5658 5665 5671 5678 5686 5693 5698 5704 5711 5720 5730 5735 5739 5746 5750 5755 5760 5765 5769 5772 5776 5779 5782 5784 5789 5790 5790 5792 5794 5797 5797 5801 5804 5805 5806 5805 5804 5804 5805 5806 5806
5610 5619 5628 5634 5642 5648 5656 5665 5674 5680 5687 5696 5704 5712 5718 5727 5731 5737 5741 5746 5749 5754 5759 5763 5767 5771 5773 5774 5776 5777 5780 5783 5784 5785 5790 5790 5794 5796 5796 5797 5796 5795 5797 5797 5797
5596 5604 5613 5619 5627 5632 5642 5652 5662 5669 5675 5681 5689 5698 5704 5712 5720 5724 5730 5736 5740 5744 5747 5751 5757 5763 5763 5764 5766 5768 5768 5772 5773 5775 5775 5780 5788 5787 5787 5788 5786 5785 5784 5785 5785
5584 5592 5598 5604 5609 5617 5631 5640 5646 5654 5658 5667 5677 5685 5694 5699 5706 5713 5719 5723 5728 5732 5735 5741 5749 5751 5753 5756 5757 5759 5760 5762 5763 5762 5765 5767 5777 5781 5780 5780 5776 5774 5771 5773 5772
5570 5578 5585 5589 5596 5610 5619 5627 5632 5637 5639 5653 5663 5673 5681 5689 5696 5702 5706 5709 5715 5722 5725 5730 5737 5742 5746 5747 5747 5749 5751 5749 5749 5748 5753 5757 5760 5772 5772 5771 5766 5762 5759 5760 5760
5557 5564 5573 5579 5592 5602 5613 5615 5619 5622 5623 5643 5651 5659 5668 5675 5684 5688 5692 5697 5704 5708 5713 5725 5728 5729 5733 5737 5736 5738 5739 5737 5735 5738 5741 5748 5747 5766 5761 5761 5755 5749 5747 5747 5746
5548 5552 5557 5567 5581 5590 5595 5599 5604 5607 5610 5628 5640 5651 5656 5662 5669 5674 5680 5685 5692 5696 5703 5712 5715 5719 5723 5726 5727 5726 5726 5725 5725 5727 5731 5736 5738 5756 5748 5744 5743 5736 5732 5735 5735
5534 5543 5547 5556 5574 5581 5583 5587 5590 5587 5610 5620 5631 5639 5644 5651 5656 5661 5670 5678 5684 5689 5696 5700 5705 5708 5711 5713 5714 5715 5717 5715 5713 5715 5720 5723 5724 5740 5737 5733 5731 5726 5720 5722 5722
5525 5531 5536 5547 5559 5567 5571 5572 5572 5586 5601 5611 5617 5623 5633 5640 5646 5651 5656 5667 5672 5679 5683 5686 5693 5697 5702 5702 5704 5703 5704 5703 5702 5704 5708 5710 5712 5725 5724 5723 5720 5713 5707 5707 5712
5512 5518 5526 5536 5544 5552 5557 5555 5560 5582 5594 5600 5605 5611 5620 5629 5635 5640 5647 5655 5662 5668 5672 5674 5678 5684 5690 5691 5693 5693 5693 5697 5690 5691 5690 5699 5705 5709 5710 5707 5705 5704 5699 5700 5701
5495 5505 5518 5529 5536 5542 5542 5547 5553 5568 5579 5589 5593 5602 5611 5618 5625 5630 5635 5647 5651 5660 5663 5665 5666 5671 5675 5679 5680 5681 5685 5682 5680 5680 5679 5684 5690 5693 5694 5693 5696 5695 5693 5691 5692
5479 5488 5507 5518 5524 5527 5527 5534 5548 5559 5566 5577 5585 5592 5601 5605 5611 5619 5626 5636 5639 5646 5652 5652 5653 5659 5661 5666 5669 5671 5673 5671 5671 5670 5667 5670 5676 5682 5680 5683 5686 5686 5685 5683 5681
5461 5472 5494 5503 5506 5508 5516 5525 5539 5550 5557 5564 5573 5582 5589 5594 5598 5603 5614 5625 5628 5633 5636 5642 5639 5639 5648 5650 5653 5655 5659 5658 5655 5658 5660 5660 5664 5668 5671 5674 5675 5676 5677 5675 5672
5449 5461 5474 5485 5487 5496 5506 5517 5528 5537 5547 5554 5560 5571 5579 5583 5587 5593 5601 5613 5616 5619 5623 5629 5625 5627 5633 5637 5638 5641 5646 5647 5648 5648 5651 5647 5655 5659 5662 5664 5664 5663 5664 5665 5664
5442 5451 5457 5465 5479 5486 5495 5504 5516 5528 5534 5542 5549 5557 5566 5571 5577 5583 5589 5598 5605 5609 5612 5613 5611 5613 5619 5629 5628 5630 5633 5635 5637 5635 5638 5638 5646 5650 5649 5651 5653 5654 5654 5653 5654
5432 5439 5446 5451 5466 5476 5487 5495 5504 5512 5520 5529 5536 5546 5554 5560 5567 5571 5580 5586 5590 5596 5600 5599 5599 5603 5611 5615 5614 5615 5618 5622 5622 5627 5623 5635 5633 5641 5640 5640 5642 5643 5643 5643 5643
5425 5433 5440 5455 5463 5471 5479 5487 5495 5501 5509 5518 5525 5537 5541 5544 5556 5563 5570 5572 5577 5582 5586 5589 5590 5592 5596 5600 5602 5601 5606 5611 5610 5616 5615 5620 5624 5631 5633 5631 5632 5633 5632 5632 5633
5416 5429 5438 5448 5456 5464 5471 5483 5490 5495 5502 5507 5518 5522 5525 5538 5543 5551 5554 5559 5564 5568 5573 5578 5580 5582 5582 5589 5587 5586 5597 5600 5602 5604 5609 5610 5621 5618 5619 5621 5623 5624 5625 5625 5625
Wind_Speed
56 56 53 51 49 50 49 49 48 46 45 44 44 42 39 37 34 32 29 30 29 29 27 24 21 19 17 17 17 17 17 19 18 15 12 10 11 11 10 12 12 14 16 19 21
59 57 56 53 54 53 52 51 50 50 49 47 47 45 42 40 37 34 34 33 30 29 28 27 25 23 22 20 20 21 21 23 23 21 17 14 14 14 14 15 15 15 17 19 21
58 55 61 57 57 55 54 54 53 52 51 51 50 49 47 44 41 39 37 34 33 31 31 30 30 27 26 27 25 24 24 27 27 25 22 20 18 17 17 21 19 17 18 20 23
63 62 55 60 59 56 59 58 55 56 54 53 53 52 49 47 46 42 40 37 37 36 34 32 32 31 31 31 30 27 27 29 29 27 24 24 22 21 20 25 25 22 20 23 24
66 64 60 57 58 60 59 60 60 57 53 56 55 55 52 49 48 45 43 42 41 40 39 37 35 35 33 33 33 31 30 30 30 30 29 27 26 27 22 29 29 26 25 26 27
66 64 65 66 62 56 58 59 57 62 63 57 58 57 55 51 50 49 47 46 45 43 42 41 39 38 37 35 36 34 35 34 33 30 31 30 31 29 24 31 31 32 32 30 29
65 66 65 64 67 57 57 52 58 57 62 63 57 58 57 52 51 52 49 48 46 45 44 43 42 42 39 39 39 39 39 38 34 32 32 34 34 30 30 34 34 36 35 33 32
72 64 62 72 61 67 60 55 63 55 55 57 56 56 53 53 52 53 52 50 49 48 48 48 47 45 44 44 43 42 44 42 36 36 37 39 38 35 36 37 37 37 38 37 37
83 74 65 63 61 62 65 58 64 62 54 58 64 59 59 52 51 53 55 54 52 51 51 51 51 50 49 48 49 47 44 43 43 42 42 42 44 38 38 41 41 39 40 39 38
73 79 80 69 67 66 63 62 59 62 68 65 63 69 68 63 59 55 54 54 52 51 52 54 54 53 52 52 50 49 49 48 48 46 46 45 44 44 42 43 43 42 42 41 41
66 77 70 78 72 70 68 74 67 70 75 70 69 69 69 65 66 62 54 54 53 54 55 54 56 55 52 52 52 53 52 50 50 51 47 48 46 45 45 44 46 46 44 45 43
65 65 66 73 78 71 71 71 71 71 69 71 75 75 74 71 62 68 65 60 58 56 55 55 56 53 53 53 51 51 52 52 52 51 53 50 46 47 47 47 50 49 48 47 47
65 66 65 62 63 67 74 64 64 66 69 69 71 74 70 69 67 64 66 64 59 57 57 57 54 51 52 51 52 51 52 53 54 54 52 52 50 48 49 49 49 50 51 51 51
65 64 65 61 65 63 63 62 63 61 62 67 66 64 66 68 64 63 64 65 64 65 64 62 55 52 51 51 51 53 53 55 56 58 56 55 61 53 48 48 50 50 53 53 54
61 67 60 64 64 59 56 54 51 52 61 60 64 69 66 64 62 62 62 63 64 65 63 59 57 56 55 52 53 55 55 57 60 58 57 55 58 50 50 49 50 51 53 55 57
62 59 64 60 63 61 55 55 55 57 65 58 61 61 61 66 65 61 58 59 60 61 58 59 64 59 58 55 55 57 57 57 57 56 58 57 58 48 51 53 52 53 55 54 50
62 61 63 63 58 55 53 52 57 62 65 63 60 58 60 56 55 56 51 50 50 50 52 52 53 52 52 55 55 55 53 55 57 59 59 56 57 51 53 54 52 56 59 53 50
62 58 58 59 58 56 57 58 60 67 64 64 64 62 59 54 56 57 54 50 51 51 52 53 55 53 52 51 50 50 52 54 57 56 57 58 61 55 54 52 52 58 59 55 45
67 66 65 61 59 56 56 61 64 62 61 63 64 63 61 58 57 56 57 54 52 50 50 51 53 52 51 50 50 52 53 49 51 55 59 60 58 55 52 53 53 53 53 51 46
71 70 68 65 64 63 63 64 65 61 61 59 61 60 59 58 57 58 58 57 55 50 48 51 53 53 54 54 55 56 53 54 54 56 57 59 57 56 52 51 45 42 41 41 42
74 73 69 67 66 61 63 69 68 64 63 59 58 58 57 58 56 55 56 54 54 51 48 51 54 54 54 55 56 56 55 56 54 54 55 56 59 56 53 44 39 35 37 41 44
76 78 71 69 67 70 71 70 67 65 65 64 61 58 58 57 57 58 54 50 52 51 52 49 51 56 54 55 55 57 55 56 58 55 53 55 60 56 50 46 44 42 39 38 41
67 75 74 73 73 72 72 70 68 66 64 65 63 61 59 60 61 60 57 53 53 54 53 49 51 52 57 60 61 61 59 58 55 47 55 55 57 50 44 42 38 39 38 39 40
54 56 58 64 66 68 71 72 71 69 68 67 66 64 62 62 61 60 59 56 54 54 55 52 52 58 60 57 57 58 56 53 49 52 55 53 46 44 43 42 41 37 39 41 41
53 57 66 67 66 65 63 65 67 70 71 70 70 69 67 66 64 63 60 59 59 57 57 49 47 54 58 56 57 60 59 56 56 49 45 47 46 38 38 41 41 41 39 40 38
54 55 55 61 64 62 66 62 63 60 65 66 69 68 67 69 67 64 62 63 61 53 47 43 53 45 43 48 42 51 53 58 55 53 52 48 44 38 38 34 35 35 33 33 34
53 55 48 58 55 59 58 63 46 59 56 51 50 52 58 61 57 57 58 60 60 59 45 38 41 45 53 50 52 54 50 48 48 48 49 49 43 40 46 47 42 38 39 38 37
Wind_Direction
237 235 233 232 230 230 227 224 225 223 220 217 217 216 217 221 223 224 226 232 236 240 239 241 239 242 241 243 242 247 254 261 262 259 256 258 268 279 294 303 315 324 330 334 338
236 237 237 233 233 232 232 230 227 225 223 220 219 220 222 223 225 227 229 233 236 241 245 245 246 248 252 251 250 249 254 256 258 260 262 260 267 280 288 291 298 310 318 324 326
236 236 234 240 236 234 237 234 233 230 228 225 223 223 224 225 226 227 233 235 239 244 247 248 247 248 252 250 249 250 252 256 260 262 266 268 267 272 282 288 292 298 306 314 315
236 239 236 233 240 236 239 242 235 236 233 232 230 227 228 228 229 228 233 235 242 246 247 249 250 248 249 250 250 252 254 254 259 263 266 267 270 272 278 282 287 295 301 302 306
230 236 237 237 236 234 236 237 241 238 238 239 236 234 232 232 234 232 234 236 239 243 246 248 249 248 247 251 253 252 253 255 257 262 265 268 270 270 279 278 285 291 293 295 300
233 232 235 237 239 238 234 236 239 236 244 242 238 238 236 236 238 237 236 238 241 245 247 248 248 249 249 250 254 254 253 255 258 264 265 268 267 270 274 277 283 288 292 295 296
232 234 230 235 237 240 236 234 238 237 239 243 241 239 238 240 240 243 242 241 242 245 249 251 251 251 251 253 256 258 256 257 259 265 270 269 268 275 274 275 281 285 290 292 293
230 230 233 236 232 237 240 237 241 238 236 236 240 239 240 241 243 246 247 245 245 246 248 251 253 254 254 254 255 258 258 261 264 265 266 267 269 271 274 276 279 280 284 289 290
230 231 229 228 229 232 234 234 237 240 239 243 244 240 236 237 242 245 248 248 247 248 250 252 254 256 257 259 258 260 265 264 264 265 266 267 270 272 272 275 277 280 283 286 289
231 232 228 228 229 231 233 233 236 236 237 239 240 240 236 237 243 247 251 252 252 252 251 252 254 256 257 260 265 264 262 261 262 263 268 268 270 271 270 273 276 279 281 284 287
234 228 228 228 228 226 232 236 237 239 240 242 247 250 244 249 247 246 252 253 254 254 255 256 256 258 260 261 261 263 264 264 264 266 267 268 266 268 270 273 277 278 282 283 285
234 233 230 227 229 229 231 235 237 238 241 246 245 245 248 250 250 247 246 251 251 253 254 254 256 258 259 261 262 263 264 265 265 267 267 265 266 269 273 274 278 280 280 281 281
230 234 235 232 231 230 232 231 234 238 237 241 242 247 249 249 247 246 246 247 250 250 253 254 255 257 258 259 262 264 266 268 270 269 271 270 266 268 272 279 279 279 280 281 281
232 234 231 229 231 231 233 233 236 238 239 234 238 242 245 249 249 253 250 249 250 251 253 254 257 258 259 263 265 266 269 270 270 269 269 269 271 274 277 276 281 283 283 282 282
234 233 234 236 234 234 236 236 236 242 240 236 234 240 240 242 245 245 249 249 249 251 250 252 251 253 255 258 262 266 267 267 267 269 271 275 276 271 276 278 281 283 279 281 281
227 233 238 231 233 230 229 231 231 232 237 235 235 235 240 241 244 246 245 247 247 248 252 254 252 253 257 260 263 265 266 269 272 274 273 274 276 269 276 279 282 283 282 282 280
237 230 235 237 232 231 229 231 231 233 234 236 237 236 240 241 243 246 246 248 251 254 254 255 255 257 257 258 261 265 270 274 274 275 276 276 275 273 276 280 282 280 280 279 279
231 232 236 236 236 228 230 229 230 234 237 240 238 238 238 240 243 246 249 246 247 249 252 253 254 257 259 261 265 266 266 267 271 275 276 274 274 277 278 280 278 277 278 280 277
227 226 228 235 239 237 237 239 238 238 240 243 244 243 242 242 245 248 249 249 249 250 255 258 258 260 261 264 265 268 267 272 273 271 271 273 277 279 279 277 275 273 275 277 279
227 227 227 231 233 235 235 236 245 244 240 237 242 245 248 248 248 248 249 249 252 253 259 263 262 260 261 260 260 264 265 264 265 269 274 276 276 277 277 274 275 276 276 279 274
227 226 224 225 229 225 229 237 240 244 248 248 246 247 245 250 253 252 252 252 254 255 255 257 258 259 259 258 262 264 265 267 269 267 269 272 272 273 272 276 276 270 271 270 270
224 227 225 226 224 228 231 235 240 241 245 250 250 250 251 252 253 255 253 253 255 256 256 259 259 257 257 259 259 261 262 262 262 262 267 270 270 271 274 275 277 276 270 269 273
219 225 227 225 225 225 233 234 237 239 240 243 246 245 246 249 252 253 254 252 252 254 254 255 255 258 256 256 256 258 260 262 264 262 265 265 270 274 274 272 269 272 271 267 264
195 210 216 216 221 227 230 233 235 238 240 241 243 245 245 246 249 253 255 255 253 252 253 253 252 255 258 261 261 258 258 261 262 261 261 263 269 268 273 270 268 273 270 266 266
197 206 211 211 209 214 220 228 234 235 236 239 242 244 246 246 248 250 252 253 255 252 251 250 251 256 258 258 258 260 260 259 260 263 258 260 262 260 264 270 270 273 272 268 269
196 211 212 216 214 216 214 220 229 228 235 237 240 242 243 246 247 247 248 248 249 251 249 248 251 248 247 252 260 261 259 260 256 252 255 254 255 262 264 258 265 268 273 276 273
194 205 213 219 220 220 221 218 227 234 232 236 238 240 242 243 249 247 244 243 244 240 237 224 233 242 247 242 241 250 260 261 263 259 258 260 267 264 258 257 266 274 269 270 274